Погода в Тумако

Колумбия     1°48′31″N   78°45′59″W
темп.,
°C
ветер,
м/с
пор.,
м/с
влажн.,
%
обл.,
%
осадки,
мм/ч
давл.,
гПа
погр.,
м
17 апреля, сб
сб1701:00+23ююв118968 0.0 101038
04:00+23ююв119298 0.1 100951
07:00+23вюв119183 0.3 101170
10:00+28ссв1174100 0.0 1012537
13:00+29сз3266100 0.0 10091006
16:00+28зсз337076 0.0 1008720
19:00+25зсз228884 0.0 1010133
22:00+24ююв1190100 0.8 101216
18 апреля, вс
вс1801:00+24ююв1196100 5.4 101252
04:00+23ю1297100 2.1 1011108
07:00+23ю2397100 3.0 1013165
10:00+24ююз1291100 0.1 1014281
13:00+28зсз217290 0.1 1010851
16:00+28зсз337797 0.0 1008497
19:00+24з358996 0.1 1010242
22:00+24з1289100 0.4 1013110
19 апреля, пн
пн1901:00+23юв2294100 1.8 101273
04:00+23вюв2398100 1.8 1011188
07:00+23всв2496100 1.8 1012235
10:00+26всв2384100 0.0 1013434
13:00+28св226998 0.0 1010600
16:00+29ссз326856 0.0 1008591
19:00+25сз2587100 0.0 1009155
22:00+24з1288100 0.1 1012116
20 апреля, вт
вт2001:00+24юз1190100 0.1 101264
04:00+23ююв1193100 0.6 101162
07:00+23ю119469 1.9 101273
10:00+28з117658 0.0 1013663
13:00+28сз337853 0.2 1011649
16:00+28сз337893 1.4 1009790
19:00+25зсз229090 2.1 1010145
22:00+24юз1192100 0.5 101278
21 апреля, ср
ср2101:00+24зюз1193100 0.6 101184
04:00+24в019457 0.3 101085
07:00+24в119430 0.4 1011101
10:00+28с117734 0.4 1012718
13:00+28зсз337434 1.0 1010895
16:00+28зсз447496 0.1 1008902
19:00+25з248819 0.3 1010188
22:00+25зюз128784 0.0 1012124